Dumas, TX

3:33 AM CST on February 11, 2016 (GMT -0600)
Moore County

Weather History for KDUX - April, 2013

Change the Weather History Date:

Friday, April 5, 2013

  Actual Average (KBGD) Record (KBGD)
Temperature  
Mean Temperature 58 °F 56 °F  
Max Temperature 81 °F 70 °F 91 °F (2010)
Min Temperature 35 °F 42 °F 26 °F (1994)
Degree Days  
Heating Degree Days 7 10  
Month to date heating degree days 52  
Since 1 July heating degree days 3529  
Cooling Degree Days 0 1  
Month to date cooling degree days 2  
Year to date cooling degree days 9  
Growing Degree Days 8 (Base 50)    
Moisture  
Dew Point 28 °F    
Average Humidity 42    
Maximum Humidity 87    
Minimum Humidity 10    
Precipitation  
Precipitation 0.00 in 0.06 in 1.13 in (1962)
Month to date precipitation 0.28  
Year to date precipitation 2.90  
Snow  
Snow 0.00 in - 2.00 in (1983)
Month to date snowfall  
Since 1 July snowfall  
Snow Depth -    
Sea Level Pressure  
Sea Level Pressure 29.98 in    
Wind  
Wind Speed 15 mph (South)    
Max Wind Speed 34 mph    
Max Gust Speed 40 mph    
Visibility 10 miles    
Events      
T = Trace of Precipitation, MM = Missing Value Source: NWS Daily Summary

Daily Weather History Graph

Daily Weather History Graph

Search for Another Location

Airport or City:

Trip Planner

Search our weather history database for the weather conditions in past years. The results will help you decide how hot, cold, wet, or windy it might be!

Date:

Astronomy

Apr. 05, 2013 Rise Set
Actual Time 7:28 AM CDT 8:13 PM CDT
Civil Twilight 7:02 AM CDT 8:39 PM CDT
Nautical Twilight 6:31 AM CDT 9:10 PM CDT
Astronomical Twilight 6:00 AM CDT 9:41 PM CDT
Moon 4:27 AM CDT (4/5) 3:47 PM CDT (4/5)
Length of Visible Light 13h 36m
Length of Day
12h 45m
Waning Crescent, 23% of the Moon is Illuminated
Apr 5
Waning Crescent
Apr 10
New
Apr 18
First Quarter
Apr 25
Full
May 2
Last Quarter

Hourly Weather History & Observations

Time (CDT) Temp. Windchill Dew Point Humidity Pressure Visibility Wind Dir Wind Speed Gust Speed Precip Events Conditions
12:15 AM 40.5 °F 34.1 °F 26.2 °F 57% 30.14 in 10.0 mi SSE 10.4 mph - N/A   Clear
12:35 AM 40.8 °F 35.0 °F 27.3 °F 59% 30.14 in 10.0 mi SSE 9.2 mph - N/A   Clear
12:55 AM 39.6 °F 33.5 °F 27.0 °F 61% 30.14 in 10.0 mi SSE 9.2 mph - N/A   Clear
1:15 AM 39.6 °F 33.5 °F 29.7 °F 68% 30.14 in 10.0 mi South 9.2 mph - N/A   Clear
1:35 AM 39.6 °F 33.5 °F 30.7 °F 71% 30.14 in 10.0 mi South 9.2 mph - N/A   Clear
1:55 AM 38.7 °F 32.9 °F 30.6 °F 73% 30.13 in 10.0 mi SSE 8.1 mph - N/A   Clear
2:15 AM 42.4 °F 36.1 °F 33.4 °F 70% 30.13 in 10.0 mi South 11.5 mph - N/A   Clear
2:35 AM 42.8 °F 36.6 °F 34.0 °F 71% 30.13 in 10.0 mi South 11.5 mph - N/A   Clear
2:55 AM 43.3 °F 36.5 °F 35.1 °F 73% 30.13 in 10.0 mi South 13.8 mph - N/A   Clear
3:15 AM 42.1 °F 36.6 °F 34.7 °F 75% 30.12 in 10.0 mi South 9.2 mph - N/A   Clear
3:35 AM 40.1 °F 34.7 °F 33.8 °F 78% 30.12 in 10.0 mi South 8.1 mph - N/A   Clear
3:55 AM 40.3 °F 33.9 °F 34.5 °F 80% 30.11 in 10.0 mi South 10.4 mph - N/A   Clear
4:15 AM 42.1 °F 35.2 °F 34.7 °F 75% 30.11 in 10.0 mi South 12.7 mph - N/A   Clear
4:35 AM 41.5 °F 34.6 °F 34.5 °F 76% 30.11 in 10.0 mi SSW 12.7 mph - N/A   Clear
4:55 AM 40.6 °F 33.4 °F 34.2 °F 78% 30.11 in 10.0 mi SSW 12.7 mph - N/A   Clear
5:15 AM 40.1 °F 33.6 °F 33.8 °F 78% 30.11 in 10.0 mi SSW 10.4 mph - N/A   Clear
5:35 AM 38.7 °F 31.8 °F 33.1 °F 80% 30.10 in 10.0 mi South 10.4 mph - N/A   Clear
5:55 AM 38.5 °F 31.1 °F 32.9 °F 80% 30.11 in 10.0 mi SSW 11.5 mph - N/A   Clear
6:15 AM 38.5 °F 31.1 °F 32.9 °F 80% 30.10 in 10.0 mi SSW 11.5 mph - N/A   Clear
6:35 AM 36.7 °F 29.9 °F 32.0 °F 83% 30.10 in 10.0 mi South 9.2 mph - N/A   Clear
6:55 AM 35.2 °F 27.6 °F 31.6 °F 87% 30.10 in 10.0 mi South 10.4 mph - N/A   Clear
7:15 AM 35.6 °F 28.0 °F 31.8 °F 86% 30.10 in 10.0 mi South 10.4 mph - N/A   Clear
7:35 AM 35.2 °F 27.6 °F 31.6 °F 87% 30.10 in 10.0 mi SSE 10.4 mph - N/A   Clear
7:55 AM 36.5 °F 28.7 °F 32.0 °F 84% 30.08 in 10.0 mi SSE 11.5 mph - N/A   Clear
8:15 AM 40.6 °F 33.8 °F 33.4 °F 75% 30.09 in 10.0 mi SSE 11.5 mph - N/A   Clear
8:35 AM 41.9 °F 35.9 °F 33.1 °F 71% 30.10 in 10.0 mi South 10.4 mph - N/A   Clear
8:55 AM 44.8 °F 39.0 °F 33.8 °F 65% 30.10 in 10.0 mi South 11.5 mph - N/A   Clear
9:15 AM 50.5 °F - 32.9 °F 51% 30.10 in 10.0 mi South 13.8 mph - N/A   Clear
9:35 AM 53.1 °F - 32.7 °F 46% 30.09 in 10.0 mi SSW 13.8 mph - N/A   Clear
9:55 AM 57.7 °F - 32.7 °F 39% 30.08 in 10.0 mi South 17.3 mph - N/A   Clear
10:15 AM 60.4 °F - 32.0 °F 34% 30.07 in 10.0 mi SSW 21.9 mph - N/A   Clear
10:35 AM 62.8 °F - 31.8 °F 31% 30.07 in 10.0 mi SSW 19.6 mph 28.8 mph N/A   Clear
10:55 AM 64.0 °F - 32.2 °F 30% 30.06 in 10.0 mi SSW 21.9 mph 26.5 mph N/A   Clear
11:15 AM 66.6 °F - 31.3 °F 27% 30.05 in 10.0 mi SSW 26.5 mph 33.4 mph N/A   Clear
11:35 AM 66.2 °F - 30.2 °F 26% 30.05 in 10.0 mi South 27.6 mph 34.5 mph N/A   Clear
11:55 AM 69.4 °F - 30.7 °F 24% 30.04 in 10.0 mi SSW 29.9 mph 36.8 mph N/A   Clear
12:15 PM 70.9 °F - 30.4 °F 22% 30.02 in 10.0 mi SSW 32.2 mph 39.1 mph N/A   Clear
12:35 PM 72.5 °F - 29.8 °F 21% 30.02 in 10.0 mi SSW 32.2 mph 38.0 mph N/A   Clear
12:55 PM 73.2 °F - 30.7 °F 21% 30.01 in 10.0 mi SSW 26.5 mph 36.8 mph N/A   Clear
1:15 PM 75.2 °F - 29.1 °F 18% 29.99 in 10.0 mi SSW 28.8 mph 35.7 mph N/A   Clear
1:35 PM 74.5 °F - 27.9 °F 18% 29.98 in 10.0 mi SSW 29.9 mph 38.0 mph N/A   Clear
2:15 PM 78.1 °F - 27.9 °F 16% 29.95 in 10.0 mi SSW 28.8 mph 40.3 mph N/A   Scattered Clouds
2:35 PM 77.5 °F - 27.5 °F 16% 29.94 in 10.0 mi SW 25.3 mph 34.5 mph N/A   Clear
2:55 PM 78.3 °F - 27.0 °F 15% 29.92 in 10.0 mi SSW 24.2 mph 34.5 mph N/A   Scattered Clouds
3:15 PM 77.4 °F - 26.1 °F 15% 29.90 in 10.0 mi SSW 26.5 mph 33.4 mph N/A   Scattered Clouds
3:35 PM 78.6 °F - 25.7 °F 14% 29.88 in 7.0 mi South 23.0 mph 36.8 mph N/A   Mostly Cloudy
3:55 PM 81.0 °F - 25.3 °F 13% 29.86 in 7.0 mi SSW 34.5 mph 40.3 mph N/A   Overcast
4:35 PM 80.1 °F - 24.6 °F 13% 29.85 in 10.0 mi SSW 26.5 mph 34.5 mph N/A   Scattered Clouds
5:15 PM 79.9 °F - 18.0 °F 10% 29.83 in 10.0 mi SW 27.6 mph 36.8 mph N/A   Scattered Clouds
5:35 PM 79.0 °F - 18.1 °F 10% 29.83 in 10.0 mi SW 24.2 mph 31.1 mph N/A   Clear
5:55 PM 80.6 °F - 19.2 °F 10% 29.82 in 10.0 mi SW 26.5 mph 33.4 mph N/A   Clear
6:15 PM 79.3 °F - 17.4 °F 10% 29.81 in 10.0 mi SW 24.2 mph 33.4 mph N/A   Clear
6:35 PM 80.1 °F - 18.3 °F 10% 29.81 in 10.0 mi SSW 27.6 mph 35.7 mph N/A   Clear
6:55 PM 79.2 °F - 18.7 °F 10% 29.80 in 10.0 mi SSW 24.2 mph 31.1 mph N/A   Clear
7:15 PM 75.7 °F - 19.4 °F 12% 29.80 in 10.0 mi SSW 24.2 mph 27.6 mph N/A   Clear
7:35 PM 73.6 °F - 19.8 °F 13% 29.79 in 10.0 mi SSW 18.4 mph - N/A   Clear
7:55 PM 73.9 °F - 22.1 °F 14% 29.79 in 10.0 mi South 19.6 mph 26.5 mph N/A   Clear
8:15 PM 72.3 °F - 22.3 °F 15% 29.79 in 10.0 mi SSW 17.3 mph - N/A   Clear
8:35 PM 70.7 °F - 22.8 °F 16% 29.79 in 10.0 mi SSW 17.3 mph - N/A   Clear
8:55 PM 69.4 °F - 22.8 °F 17% 29.79 in 10.0 mi SSW 17.3 mph - N/A   Clear
9:15 PM 67.5 °F - 22.6 °F 18% 29.79 in 10.0 mi South 13.8 mph - N/A   Clear
9:35 PM 65.7 °F - 22.6 °F 19% 29.79 in 10.0 mi South 15.0 mph - N/A   Clear
9:55 PM 66.4 °F - 23.9 °F 20% 29.80 in 10.0 mi South 13.8 mph - N/A   Clear
10:15 PM 63.9 °F - 23.7 °F 22% 29.81 in 10.0 mi South 12.7 mph - N/A   Clear
10:35 PM 61.7 °F - 23.5 °F 23% 29.81 in 10.0 mi South 11.5 mph - N/A   Clear
10:55 PM 62.6 °F - 24.8 °F 24% 29.81 in 10.0 mi South 13.8 mph - N/A   Clear
11:15 PM 61.7 °F - 24.8 °F 24% 29.81 in 10.0 mi South 12.7 mph - N/A   Clear
11:35 PM 60.6 °F - 25.0 °F 26% 29.81 in 10.0 mi South 16.1 mph - N/A   Clear
11:55 PM 61.5 °F - 24.6 °F 24% 29.80 in 10.0 mi South 19.6 mph - N/A   Clear